Morgan Furman

Scout - Mamelodi Sundowns
3 Dec 2028
Sunday
Process

Personality

Adaptability (18) Ambition (13) Controversy (10) Loyalty (17) Pressure (2) Professionalism (3) Sportsmanship (6) Temperament (1)

Profile

Coaching Style Democratic
License Continental B
Determination 11
Man Management 13
Motivating 11
Discipline 13
Job Satisfaction
100%
Fatigue
0%
Role Scout
Wage 14.6K p/w
Contract 14.03.2029

Performance

Behaviour Good
Training Effectiveness
33%
Player Development
45%
Injury Prevention
25%
Tactical Implementation
30%

Recent Events

Assessed a player now
Attended a recruitment meeting now
Assessed a player now
Assessed a player now
Assessed a player now
Observed a match 7d ago
Observed a match 7d ago
Assessed a player 7d ago

Currently Monitoring

222
Player Club Status Ability Confidence Watched Last Observed Latest Vote
Steven Bergwijn Al-Ittihad Active 138 / 157 40% 9 01.12.2028 -
Jeremías Merlo Gimnasia La Plata Active 109 / 120 40% 2 01.12.2028 -
Mirlind Daku Spartak Moscow Active 155 / 140 40% 4 01.12.2028 -
Lautaro Vargas Unión de Santa Fe Active 113 / 130 40% 1 01.12.2028 -
Jonathan Rowe Bologna Active 161 / 137 40% 2 28.11.2028 -
Albert Guðmundsson Fiorentina Active 148 / 153 40% 6 27.11.2028 -
Iván Azón Cesena Active 133 / 139 40% 1 27.11.2028 -
Adam Armstrong Leyton Orient Active 143 / 127 40% 3 26.11.2028 -
Wilfried Gnonto Leeds United Active 164 / 155 40% 1 26.11.2028 -
David Romero Parma Active 120 / 139 40% 5 24.11.2028 -
Dany Mota Bologna Active 134 / 141 40% 8 23.11.2028 -
Alex Luna Instituto Active 133 / 138 40% 3 22.11.2028 -
Gaetano Oristanio Lazio Active 143 / 151 40% 2 22.11.2028 -
Afimico Pululu Newcastle United Active 123 / 135 40% 4 22.11.2028 -
Harry Gray Harrogate Town Active 138 / 131 40% 1 22.11.2028 -
Tobías Leiva Estudiantes Active 129 / 121 40% 2 21.11.2028 -
Maximiliano Meléndez Chacarita Juniors Active 101 / 116 40% 1 21.11.2028 -
Lisandro Piñero Banfield Active 111 / 137 40% 2 19.11.2028 -
Amin Boudri Los Angeles Football Club Active 132 / 127 40% 1 19.11.2028 -
Omar Nader Brentford Active 155 / 146 40% 1 19.11.2028 -
Leon Grgić Werder Bremen Active 124 / 144 40% 6 18.11.2028 -
Ethan Williams Peterborough United Active 144 / 130 40% 4 15.11.2028 -
Saldanha Al Wasl Active 125 / 144 40% 1 15.11.2028 -
Joël Piroe Leeds United Active 127 / 138 40% 6 12.11.2028 -
Thiago Lauro Morón Active 124 / 122 40% 1 12.11.2028 -
Seb Ferdinand Rotherham United Active 141 / 133 40% 1 12.11.2028 -
Tobias Bech AGF Active 134 / 146 40% 3 09.11.2028 -
Dale Taylor Blackpool Active 123 / 116 40% 1 08.11.2028 -
Luis Ángel Díaz Independiente Rivadavia Active 126 / 116 40% 1 08.11.2028 -
Alieu Njie Torino Active 124 / 147 40% 4 07.11.2028 -
Nikola Vlašić Palermo Active 168 / 147 40% 5 07.11.2028 -
Vadim Rakov CSKA Moscow Active 133 / 142 40% 1 06.11.2028 -
Mateo Pellegrino Fiorentina Active 166 / 155 40% 3 04.11.2028 -
Eduardo Lozano Botafogo Active 166 / 143 40% 5 04.11.2028 -
Juan Velázquez Belgrano Active 131 / 128 40% 1 04.11.2028 -
Ignacio Perruzzi San Lorenzo Active 139 / 121 40% 2 30.10.2028 -
Iker Bravo Napoli Active 123 / 135 40% 1 29.10.2028 -
Beto Napoli Active 129 / 147 40% 3 28.10.2028 -
Franco Minerva Platense Active 136 / 129 40% 2 28.10.2028 -
Esquerdinha Notts County Active 137 / 129 40% 1 28.10.2028 -
Dylan Aquino Aldosivi Active 124 / 139 40% 1 27.10.2028 -
Puso Dithejane Chicago Fire Active 97 / 113 40% 1 27.10.2028 -
Rodrigo Ribeiro Bayer Leverkusen Active 120 / 137 40% 3 26.10.2028 -
Jonathan De Irastorza Independiente Active 140 / 137 40% 1 25.10.2028 -
Fer Niño Elche Active 127 / 130 40% 3 24.10.2028 -
Taiwo Awoniyi Middlesbrough Active 133 / 141 40% 2 21.10.2028 -
Elián Giménez Sarmiento Active 115 / 133 40% 2 20.10.2028 -
Matija Frigan Parma Active 129 / 138 40% 1 20.10.2028 -
Mathis Servais Millwall Active 116 / 129 40% 1 20.10.2028 -
Nikola Štulić Pisa Active 121 / 134 40% 2 18.10.2028 -
Braian Aranda Agropecuario Argentino Active 104 / 118 40% 1 11.10.2028 -
Thierry Small Preston Active 119 / 124 40% 4 10.10.2028 -
Nicolás Barros Schelotto Gimnasia La Plata Active 108 / 118 40% 2 10.10.2028 -
Aune Heggebø West Bromwich Albion Active 129 / 128 40% 2 06.10.2028 -
Mathias Pereira Lage RB Leipzig Active 128 / 144 40% 3 04.10.2028 -
Tomás Ferreyra Defensores Unidos Active 121 / 122 40% 1 04.10.2028 -
David Martínez Los Angeles Football Club Active 117 / 121 40% 1 04.10.2028 -
Lukas Kelly-Heald Wellington Phoenix Active 123 / 116 40% 1 03.10.2028 -
Emersonn Ipswich Town Active 156 / 135 40% 1 01.10.2028 -
Lucas Beltrán Fiorentina Active 129 / 149 40% 6 29.09.2028 -
Mateo Seoane Gimnasia La Plata Active 122 / 119 40% 3 25.09.2028 -
Manfred Ugalde Spartak Moscow Active 126 / 133 40% 4 25.09.2028 -
Franco González Penarol Active 108 / 119 40% 1 25.09.2028 -
Willem Geubbels Lecce Active 120 / 139 40% 3 23.09.2028 -
Gonzalo Plata Nacional Active 126 / 144 40% 3 20.09.2028 -
Patson Daka Leicester City Active 128 / 144 40% 1 18.09.2028 -
Zian Flemming Ipswich Town Active 137 / 147 40% 3 14.09.2028 -
Zakaria Aboukhlal Pescara Active 126 / 138 40% 4 12.09.2028 -
Iñaki Larthirigoyen San Telmo Active 128 / 124 40% 1 10.09.2028 -
Leandro Mamut Gimnasia La Plata Active 111 / 118 40% 1 10.09.2028 -
Artem Dovbyk Hellas Verona Active 129 / 152 40% 1 09.09.2028 -
Orazio Messina Torino Active 123 / 130 40% 2 04.09.2028 -
Joaquín Mosqueira Talleres Active 121 / 121 40% 2 04.09.2028 -
Roberto Piccoli Fiorentina Active 131 / 141 40% 4 02.09.2028 -
Keinan Davis Udinese Active 126 / 143 40% 2 01.09.2028 -
Gorka Guruzeta Barcelona Active 138 / 151 40% 1 01.09.2028 -
Diego Gaitán Maipú Active 95 / 118 40% 2 31.08.2028 -
Sindre Walle Egeli Udinese Active 125 / 143 40% 1 31.08.2028 -
Adam Gnezda Čerin Al Wahda Active 126 / 131 40% 1 28.08.2028 -
Sam Szmodics Ipswich Town Lost 144 / 137 40% 1 28.08.2028 -
Luca Langoni Columbus Crew Active 119 / 139 40% 1 26.08.2028 -
Aidomo Emakhu Oxford United Active 139 / 125 40% 2 25.08.2028 -
Victor Torp Bristol Rovers Active 124 / 140 40% 1 25.08.2028 -
Toni Fruk Talleres Active 130 / 141 40% 3 24.08.2028 -
Haji Wright Coventry City Active 131 / 136 40% 1 24.08.2028 -
Lucas Gómez Argentinos Juniors Active 136 / 127 40% 1 23.08.2028 -
Dor Turgeman Spartak Moscow Active 120 / 131 40% 1 23.08.2028 -
Alan Lescano Argentinos Juniors Lost 130 / 142 40% 1 21.08.2028 -
Nahuel Tenaglia Banfield Active 124 / 140 40% 1 21.08.2028 -
Lukas Nmecha Leeds United Active 122 / 139 40% 2 20.08.2028 -
Ramiro Hernandes Belgrano Active 132 / 129 40% 1 20.08.2028 -
Marco Pagliari Ternana Active 136 / 124 40% 1 20.08.2028 -
Exequiel Zeballos Bournemouth Active 141 / 137 40% 1 17.08.2028 -
Boulaye Dia Lazio Active 129 / 146 40% 2 16.08.2028 -
Stefano Di Mario Virtus Entella Active 121 / 139 40% 1 16.08.2028 -
Lorenzo Ignacchiti Cesena Active 153 / 133 40% 1 16.08.2028 -
Richarlison Bournemouth Active 152 / 143 40% 1 15.08.2028 -
Konan N'Dri Lecce Active 120 / 139 40% 1 15.08.2028 -
Callum O'Hare Sheffield United Active 122 / 143 40% 1 12.08.2028 -
Nicolas Previtali Giana Erminio Active 132 / 116 40% 1 11.08.2028 -
Tommaso Berti Cesena Active 155 / 138 40% 1 10.08.2028 -
Costantino Favasuli Catanzaro Active 145 / 136 40% 1 10.08.2028 -
George Earthy Reading Active 142 / 134 40% 2 08.08.2028 -
Igor Tyjon Barrow AFC Active 139 / 129 40% 2 08.08.2028 -
Ilias Chair Queens Park Rangers Active 128 / 142 40% 1 08.08.2028 -
Brian De Keersmaecker Oxford United Active 152 / 127 40% 1 06.08.2028 -
Michael Baidoo Plymouth Argyle Active 150 / 135 40% 1 06.08.2028 -
Sydie Peck Swindon Town Active 131 / 135 40% 2 05.08.2028 -
Jack Currie Oxford United Active 119 / 131 40% 1 05.08.2028 -
Neco Williams Wrexham Active 145 / 158 40% 5 04.08.2028 -
Brandon Thomas-Asante Blackpool Active 121 / 120 40% 1 04.08.2028 -
Kasey McAteer Barnsley Active 135 / 141 40% 1 03.08.2028 -
Stanley Mills Crewe Alexandra Active 142 / 129 40% 3 02.08.2028 -
Andrey Santos Bolton Wanderers Active 161 / 146 40% 3 02.08.2028 -
Jarrod Bowen West Ham United Active 159 / 164 40% 1 02.08.2028 -
Eli Junior Kroupi Bournemouth Active 159 / 144 40% 1 02.08.2028 -
Tyreece Campbell Charlton Athletic Active 147 / 122 40% 3 01.08.2028 -
August Priske Sunderland Active 142 / 136 40% 1 27.07.2028 -
Kyreece Lisbie Colchester United Active 111 / 119 40% 1 24.07.2028 -
Gideon Kumar Luton Town Active 119 / 126 40% 1 24.07.2028 -
Uriel Antuna Dinamo Moscow Active 122 / 140 40% 1 22.07.2028 -
Amin Sarr Hellas Verona Active 124 / 133 40% 1 21.07.2028 -
Terry Devlin Portsmouth Active 138 / 139 40% 1 21.07.2028 -
Benicio Baker-Boaitey Mansfield Town Active 126 / 122 40% 1 20.07.2028 -
Nicolas Madsen Queens Park Rangers Active 120 / 143 40% 1 19.07.2028 -
Matěj Jurásek Doncaster Rovers Active 114 / 123 40% 3 18.07.2028 -
Femi Seriki Sheffield United Active 146 / 136 40% 1 18.07.2028 -
Gabe Forsyth Colchester United Active 97 / 112 40% 1 16.07.2028 -
Toby Collyer West Bromwich Albion Active 159 / 142 40% 4 15.07.2028 -
Ra'ees Bangura-Williams Millwall Active 128 / 127 40% 3 15.07.2028 -
Yasin Ayari Middlesbrough Active 146 / 163 40% 1 14.07.2028 -
Jamie Donley West Bromwich Albion Active 129 / 134 40% 1 12.07.2028 -
Will Alves Leicester City Active 149 / 127 40% 1 12.07.2028 -
Ar'jany Martha Rotherham United Active 130 / 121 40% 2 10.07.2028 -
Bongani Zungu Ajax Cape Town Active 127 / 133 48% 1 10.07.2028 -
Jacques Ekomié Wrexham Active 139 / 140 40% 1 10.07.2028 -
Caylan Vickers Burton Albion Active 104 / 124 40% 2 09.07.2028 -
Lamare Bogarde Reading Active 140 / 144 40% 1 09.07.2028 -
Max Johnston Derby County Active 143 / 131 40% 2 08.07.2028 -
William Osula Wrexham Active 148 / 132 40% 1 08.07.2028 -
Sander Berge Derby County Active 141 / 157 40% 4 03.07.2028 -
Kristoffer Lund Birmingham Active 150 / 129 40% 1 03.07.2028 -
Jayden Danns Bradford City Active 122 / 140 40% 3 27.06.2028 -
André Wolverhampton Active 156 / 154 40% 2 26.06.2028 -
Nicolas Madsen Queens Park Rangers Lost 134 / 133 40% 1 26.06.2028 -
Nuno Santos SuperSport United Active 138 / 130 48% 1 19.06.2028 -
Luke McNally Bristol City Active 127 / 141 40% 1 19.06.2028 -
Eli Junior Kroupi Bournemouth Lost 134 / 144 40% 1 13.06.2028 -
Jordan Lotomba Bloemfontein Celtic Lost 123 / 133 48% 1 02.06.2028 -
Eliot Matazo Oldham Athletic Active 132 / 135 40% 1 02.06.2028 -
Tristan Crama Wycombe Wanderers Active 112 / 129 40% 1 02.06.2028 -
Nicolò Zaniolo Udinese Active 169 / 153 40% 1 31.05.2028 -
Vitinha Genoa Active 150 / 144 40% 1 31.05.2028 -
Filip Marschall Stevenage Active 123 / 132 40% 1 28.05.2028 -
Exequiel Palacios Lazio Active 165 / 162 40% 1 25.05.2028 -
Oscar Bobb Wrexham Active 166 / 141 40% 1 25.05.2028 -
Jayden Bogle Leeds United Active 163 / 147 40% 4 22.05.2028 -
Josh Nichols Oldham Athletic Active 107 / 134 40% 1 22.05.2028 -
Shea Charles Southampton Active 136 / 154 40% 3 21.05.2028 -
Reuell Walters Luton Town Active 128 / 116 40% 3 21.05.2028 -
Bafodé Diakité Plymouth Argyle Active 129 / 148 40% 5 19.05.2028 -
Ryan Sessegnon Fulham Active 156 / 147 40% 2 19.05.2028 -
Derry Murkin Derby County Active 142 / 125 40% 3 18.05.2028 -
Harry Clarke Preston Active 144 / 142 40% 1 18.05.2028 -
Xaver Schlager Nottingham Forest Active 163 / 160 40% 1 16.05.2028 -
Filippo Rinaldi Parma Active 151 / 138 40% 1 16.05.2028 -
Melker Ellborg Sunderland Active 152 / 140 40% 1 16.05.2028 -
Abdoul Ouattara Port Vale Active 148 / 129 40% 2 15.05.2028 -
Ben Gannon Doak Charlton Athletic Active 147 / 155 40% 1 15.05.2028 -
Kenny Tete Fulham Active 142 / 144 40% 4 14.05.2028 -
Bobby Thomas Grimsby Town Active 154 / 146 40% 1 12.05.2028 -
Arthur Okonkwo Wrexham Active 138 / 130 40% 1 11.05.2028 -
Timothy Castagne Stoke City Active 148 / 143 40% 3 10.05.2028 -
Jack McGlynn Stoke City Active 136 / 129 40% 1 09.05.2028 -
Yerson Mosquera Wolverhampton Active 155 / 136 40% 2 06.05.2028 -
Oliver Skipp Leicester City Active 151 / 138 40% 1 05.05.2028 -
Hákon Rafn Valdimarsson Southampton Active 153 / 141 40% 2 04.05.2028 -
Oliver Dovin Coventry City Active 150 / 149 40% 1 04.05.2028 -
Welington Southampton Active 125 / 141 40% 3 03.05.2028 -
Rocco Vata Watford Active 136 / 124 40% 1 30.04.2028 -
Joe Rodon Blackburn Rovers Active 136 / 140 40% 2 29.04.2028 -
Jhon Solís Birmingham Active 139 / 144 40% 1 29.04.2028 -
Florentino Luís Ipswich Town Active 129 / 141 40% 1 29.04.2028 -
Marc Bola Watford Active 123 / 117 40% 1 26.04.2028 -
James Trafford Leeds United Active 169 / 160 40% 1 26.04.2028 -
Luca Williams-Barnett Walsall Active 138 / 122 40% 1 25.04.2028 -
Taylor Harwood-Bellis Stockport County Active 118 / 143 40% 1 23.04.2028 -
Max Bird Birmingham Active 132 / 132 40% 1 22.04.2028 -
Ladislav Krejčí Wolverhampton Active 138 / 155 40% 1 21.04.2028 -
Facundo Sanguinetti Banfield Active 112 / 139 40% 3 20.04.2028 -
Malik Mothersille Stockport County Active 125 / 125 40% 2 19.04.2028 -
Joaquín Blázquez Talleres Active 130 / 135 40% 1 16.04.2028 -
Milan van Ewijk Coventry City Active 127 / 143 40% 1 16.04.2028 -
Admir Bristrić Cambridge United Active 121 / 122 40% 1 16.04.2028 -
Reyes Cleary Bromley Active 116 / 124 40% 1 13.04.2028 -
Japhet Tanganga Sheffield United Active 147 / 144 40% 1 12.04.2028 -
Pierce Charles Manchester City Active 115 / 132 40% 1 11.04.2028 -
Gavin Bazunu Newcastle United Active 113 / 125 40% 1 11.04.2028 -
Dennis Cirkin Queens Park Rangers Active 152 / 126 40% 2 08.04.2028 -
Stanislav Agkatsev Brentford Active 153 / 144 40% 1 08.04.2028 -
Semuel Pizzignacco Monza Active 149 / 135 40% 1 08.04.2028 -
Zion Suzuki Aston Villa Active 155 / 143 40% 3 07.04.2028 -
Leo Castledine Middlesbrough Active 142 / 140 40% 1 07.04.2028 -
Robin Roefs Sunderland Active 164 / 150 40% 2 04.04.2028 -
Daniel Peretz Wolverhampton Active 143 / 150 40% 2 04.04.2028 -
Kostantis Tzolakis Brighton Active 142 / 159 40% 1 02.04.2028 -
Ben Nelson Leicester City Active 135 / 143 40% 2 29.03.2028 -
Ibrahim Sangaré Nottingham Forest Active 149 / 155 40% 1 28.03.2028 -
Max Arfsten Middlesbrough Active 113 / 128 40% 1 25.03.2028 -
Radek Vítek Middlesbrough Active 147 / 157 40% 1 25.03.2028 -
Giorgi Mamardashvili Liverpool Active 161 / 172 40% 1 25.03.2028 -
Brooke Norton-Cuffy Hull City Active 131 / 153 40% 1 23.03.2028 -
Josh Keeley Luton Town Active 139 / 130 40% 1 23.03.2028 -
Alejandro Rodríguez Melgar Active 108 / 126 40% 1 21.03.2028 -
Manuel Ugarte Leicester City Active 130 / 147 40% 1 18.03.2028 -
Jonas Urbig Bayern Munich Active 144 / 154 40% 1 06.03.2028 -
Abduvohid Ne'matov Nasaf Active 113 / 119 40% 1 19.01.2028 -
Frankarlos Benítez Caracas Active 110 / 106 40% 1 17.08.2027 -
Brad Hills Stockport County Active 126 / 129 40% 1 09.08.2027 -
Gonçalo Oliveira Benfica Active 101 / 107 40% 1 01.06.2027 -
Hans Nicolussi Caviglia Parma Active 156 / 146 40% 1 31.05.2027 -
Haashim Domingo Maritzburg United Active 110 / 104 44% 1 10.08.2026 -